    Observer details:
    033 Karl Schwarzschild Observatory, Tautenburg.  Observers S. Melnikov, C.
        Hoegner, F. Ludwig, M. Hartmann, B. Stecklum.  Measurer B. Stecklum.
        1.34-m f/3 Schmidt + CCD.
    104 San Marcello Pistoiese.  Observers P. Bacci, M. Maestripieri.  Measurer P.
        Bacci.  0.60-m f/4.0 reflector + CCD.
    106 Crni Vrh.  Observer H. Mikuz.  0.60-m f/3.3 reflector + CMO.
    204 Schiaparelli Observatory.  Observers L. Buzzi, G. Galli.  0.84-m f/3.5
        reflector + CCD.
    246 Klet Observatory-KLENOT.  Observers M. Tichy, J. Ticha, M. Janda, M.
        Honkova.  Measurer M. Tichy.  1.06-m f/2.7 Reflector + 2048x2048 CCD.
    595 Farra d'Isonzo.  Observer E. Pettarin.  0.61-m f/4.5 reflector + CCD.
    958 Observatoire de Dax.  Observer P. Dupouy.  0.50-m f/4.5 Reflector + CMO.
    B72 Soerth.  Observer B. Koch.  0.36-m f/7.6 reflector + CMO.
    C40 Kuban State University Astrophysical Observatory.  Observers A. Ivanov, A.
        Barcov, V. Ivanov, V. Lysenko, N. Yakovenko, N. Ivanova, N. Gorbunov, G.
        Kurbatov, P. Shchukin, V. Roshchupko.  Measurer A. Ivanov.  0.51-m f/8
        reflector + CCD.
    C95 SATINO Remote Observatory, Haute Provence.  Observer J. Jahn.  0.60-m
        f/3.2 Newtonian reflector + CCD.
    F51 Pan-STARRS 1, Haleakala.  Observers J. Bulger, T. Lowe, P. Minguez, A.
        Schultz, I. Smith, K. Chambers.  Measurers K. Chambers, T. de Boer, J.
        Bulger, J. Fairlamb, H. Gao, M. Huber, C.-C. Lin, T. Lowe, E. Magnier, P.
        Minguez, Y. Ramanjooloo, A. Schultz, I. Smith, R. Wainscoat, R. Weryk, S.
        Chastel.  1.8-m Ritchey-Chretien + CCD.
    F52 Pan-STARRS 2, Haleakala.  Observers J. Bulger, K. Chambers, T. Dukes, T.
        Lowe, P. Minguez, A. Schultz, I. Smith.  Measurers S. Chastel, J.
        Fairlamb, M. Huber, Y. Ramanjooloo, R. Wainscoat, R. Weryk.  1.8-m
        Ritchey-Chretien + CCD.
    G02 KYSUCE Observatory, Kysucke Nove Mesto.  Observer M. Urbanik.  0.40-m
        f/6.8 Corrected Dall-Kirkham + CCD.
    H21 Astronomical Research Observatory, Westfield.  Observer R. Holmes.
        Measurers T. Linder, R. Holmes, L. Horn.  0.76-m f/3.0 astrograph + CCD.
    I93 St Pardon de Conques.  Observer F. Losse.  0.40-m f/3.7 reflector + CMO.
    J95 Great Shefford.  Observer P. Birtwhistle.  0.41-m f/6.3 Schmidt-Cassegrain
        + CCD.
    L01 Visnjan Observatory, Tican.  Observer K. Korlevic.  1.0-m f/2.9 reflector
        + CCD.
    L02 NOAK Observatory, Stavraki.  Observer N. Sioulas.  0.25-m f/4.7 reflector
        + CCD.
    L65 Bredenkamp Observatory, Bremen.  Observer H. Duin.  0.23-m f/6.3 reflector
        + CMO.
    M60 Virgil Observatory, Loiano.  Observer A. Carbognani.  0.30-m f/4.0
        Reflector + CCD.
    
    Orbital elements:
    2023 RJ3                                            PHA, Earth MOID = 0.0082 AU
    Epoch 2023 Sept. 13.0 TT = JDT 2460200.5                Veres                   
    M  24.49952              (2000.0)            P               Q                  
    n   0.36859793     Peri.  271.94489     -0.22361559     +0.97399246             
    a   1.9264931      Node   344.98151     -0.82880530     -0.20974044             
    e   0.6664168      Incl.    8.10503     -0.51291115     -0.08571838             
    P   2.67           H   21.11          G   0.15           U   9                  
    Residuals in seconds of arc
    230820 F52  0.0   0.3+    230909 595  0.5-  0.3-    230909 C40  0.5+  0.7+
    230820 F52  0.0   0.1-    230909 I93  0.1+  0.6-    230909 C40  0.8+  0.1+
    230820 F52  0.0   0.1-    230909 I93  0.4-  0.5-    230909 L02  0.7-  0.8+
    230908 F51  0.2-  0.9-    230909 I93  0.4-  0.4-    230909 C40  0.3-  0.3+
    230908 F51  0.2-  0.9-    230909 C95  1.0-  0.7-    230909 L02  0.9-  1.3+
    230908 F51  0.2-  0.8-    230909 595  0.4+  0.1-    230909 B72  0.2-  0.3-
    230908 F51  0.4+  0.9-    230909 C95  0.5-  0.4-    230909 B72  0.5-  0.1-
    230908 F51  0.5+  0.9-    230909 C95  0.1+  0.5-    230909 B72  0.4-  0.0
    230908 F51  0.6+  0.9-    230909 L65  0.2+  0.4-    230909 958  1.0-  1.0+
    230908 106  0.5-  0.4-    230909 L65  0.1-  0.3-    230909 958  1.0-  0.6+
    230908 M60  0.4-  0.3-    230909 J95  0.2-  0.1-    230909 958  0.1+  0.6-
    230908 106  0.7-  0.4-    230909 J95  0.0   0.3-    230910 204  0.1-  0.1-
    230908 M60  0.7-  0.2-    230909 J95  0.2-  0.2-    230910 204  0.1-  0.0
    230908 106  0.6-  0.1-    230909 J95  0.3-  0.2+    230910 204  0.1-  0.1+
    230908 M60  0.7-  0.5-    230909 L65  0.5+  0.6-    230910 033  0.0   0.1-
    230908 M60  0.5-  0.4-    230909 033  0.1+  0.2-    230910 033  0.0   0.1+
    230908 104  0.1-  1.1-    230909 033  0.3+  0.5-    230910 033  0.1+  0.2+
    230909 595  0.7-  0.0     230909 033  0.1+  0.3-    230910 H21  0.3-  0.2+
    230909 104  0.4+  0.2-    230909 033  0.3+  0.4-    230910 H21  0.4-  0.2+
    230909 L01  0.3-  0.4-    230909 L02  0.4+  0.6+    230910 H21  0.4-  0.1+
    230909 L01  0.7-  0.3-    230909 L02  1.5+  0.8-    230910 H21  0.4-  0.1+
    230909 L01  0.8-  0.1-    230909 G02  1.5-  0.5+    230910 246  0.2+  1.3+
    230909 L01  0.7-  0.4+    230909 G02  0.7-  0.3+    230910 246  0.2-  1.5+
    230909 L01  0.2-  0.3-    230909 G02  0.9-  0.6+    230910 246  0.1-  0.3+
    
    Ephemeris:
    2023 RJ3                 a,e,i = 1.93, 0.67, 8                   q = 0.6426
    Date    TT    R. A. (2000) Decl.     Delta      r    Elong.  Phase     V
    2023 08 11    07 05 35.2 +10 19 56   0.2004  0.8534    33.3   139.3    24.0
    ...
    2023 08 26    04 17 59.1 +19 01 44   0.1762  1.0146    86.2    83.8    20.3
    ...
    2023 09 03    02 51 16.6 +20 04 15   0.1982  1.1031   113.5    57.0    19.9
    ...
    2023 09 09    01 59 06.9 +19 14 42   0.2274  1.1693   131.0    40.6    19.8
    2023 09 10    01 51 35.1 +19 01 32   0.2332  1.1803   133.6    38.1    19.8
    2023 09 11    01 44 22.4 +18 47 24   0.2393  1.1913   136.2    35.8    19.8
    ...
    2023 09 17    01 07 22.2 +17 10 04   0.2807  1.2566   150.1    23.5    20.0
    ...
    2023 09 25    00 32 10.6 +14 53 12   0.3488  1.3420   164.2    11.8    20.2
    ...
    2023 10 10    23 55 55.6 +11 25 13   0.5115  1.4964   163.5    10.9    21.2
    
    M. P. C. Staff               (C) Copyright 2023 MPC           M.P.E.C. 2023-R109
    


    Read MPEC 2023-R108 Read MPEC 2023-R110


    MPEC number:

    Enter an MPEC number in one of the following forms:

    • 1997-B01 (the full form)
    • J97B01 (the packed version of the full form)
    • B01 (the abbreviated form)